Airfield :
LOGIN :

Register | Disclaimer

   EN    FR    IT 

 










Legend :    VFR   Marginal VFR   IFR   Intensive IFR   Very Intensive IFR
Visi :
Ceiling :
>= 8 km
>= 3000ft
5 to 8 km
1000 to 3000 ft
1500m to 5 km
500 to 1000 ft
800 to 1500m
200 to 500 ft
< 800m
< 200 ft
Symbols :   Thunderstorms  Fog  Heavy snow  Heavy precipitations  Wind > 20 kt
SIGMETs :     Misc.  Thunderstorms  Icing  Turbulence  Mountain Waves  Volcanic Ashes







- Airport Elevation : 65 ft
- IATA code : PMO


LICJ - Palermo Punta Raisi

CURRENT METAR :
  • 251150Z 06014KT CAVOK 20/11 Q1016

EXPIRED METARs :
  • 251120Z 04012KT CAVOK 20/12 Q1017
  • 251050Z 04010KT CAVOK 19/10 Q1017
  • 251020Z 03009KT CAVOK 19/11 Q1017
  • 250950Z 03009KT CAVOK 18/10 Q1018
  • 250920Z 04010KT CAVOK 17/12 Q1018

TAF TAF LICJ
Valid from the 25 at 12:00 until the 26 at 12:00 UTC


251100Z 2512/2612 04012KT CAVOK
BECMG 2517/2519 20008KT
No reported NOTAMs for that airfield.



MET'MAP, your aeronautical weather chart ! - Copyright ORBIFLY December 2007 - Disclaimer

ORBIFLY MET'MAP TEAM :

Programming & Development : Alexandra Zaïnal
Concept & Development : Baudouin d'Aumeries
Co-Development & Prog : Marc-Olivier Méhu
Technical & hardware support : Manuel Goepfert

Contact : metmap@orbifly.com




SOURCES & CREDITS :

   NOAA